Weather History for Gulfport, MS

Change the Weather History Date:

Friday, August 23, 2013

  Actual Average Record
Temperature  
Mean Temperature 80 °F -  
Max Temperature 88 °F 91 °F 99 °F (1980)
Min Temperature 75 °F 72 °F 63 °F (1956)
Cooling Degree Days 16    
Growing Degree Days 30 (Base 50)    
Moisture  
Dew Point 73 °F    
Average Humidity 81    
Maximum Humidity 94    
Minimum Humidity 67    
Precipitation  
Precipitation 0.10 in - - ()
Sea Level Pressure  
Sea Level Pressure 29.99 in    
Wind  
Wind Speed 6 mph (ENE)    
Max Wind Speed 16 mph    
Max Gust Speed 18 mph    
Visibility 10 miles    
Events Rain    
Averages and records for this station are not official NWS values.
T = Trace of Precipitation, MM = Missing Value Source: NWS Daily Summary

Daily Weather History Graph

Daily Weather History Graph

Search for Another Location

Airport:

Trip Planner

Search our weather history database for the weather conditions in past years. The results will help you decide how hot, cold, wet, or windy it might be!

Date:

Astronomy

Aug. 23, 2013 Rise Set
Actual Time 6:27 AM CDT 7:29 PM CDT
Civil Twilight 6:03 AM CDT 7:53 PM CDT
Nautical Twilight 5:33 AM CDT 8:23 PM CDT
Astronomical Twilight 5:03 AM CDT 8:53 PM CDT
Moon 9:06 PM CDT (8/23) 9:06 AM CDT (8/23)
Length of Visible Light 13h 50m
Length of Day
13h 01m
Waning Gibbous, 91% of the Moon is Illuminated
Aug 23
Waning Gibbous
Aug 28
Last Quarter
Sep 5
New
Sep 12
First Quarter
Sep 19
Full

Hourly Weather History & Observations

Time (CDT) Temp. Heat Index Dew Point Humidity Pressure Visibility Wind Dir Wind Speed Gust Speed Precip Events Conditions
12:53 AM 77.0 °F - 72.0 °F 84% 30.01 in 10.0 mi NE 4.6 mph - N/A   Clear
1:53 AM 75.9 °F - 72.0 °F 87% 29.99 in 10.0 mi Calm Calm - N/A   Clear
2:53 AM 75.0 °F - 72.0 °F 90% 29.97 in 10.0 mi North 3.5 mph - N/A   Clear
3:53 AM 75.9 °F - 73.0 °F 91% 29.97 in 10.0 mi Calm Calm - N/A   Clear
4:53 AM 77.0 °F - 73.0 °F 88% 29.96 in 10.0 mi ENE 5.8 mph - N/A   Clear
5:53 AM 75.9 °F - 73.0 °F 91% 29.97 in 10.0 mi ENE 3.5 mph - N/A   Partly Cloudy
6:53 AM 75.9 °F - 73.0 °F 91% 29.98 in 10.0 mi NE 5.8 mph - N/A   Overcast
7:34 AM 77.0 °F - 73.4 °F 89% 29.98 in 10.0 mi NE 5.8 mph - N/A   Mostly Cloudy
7:53 AM 77.0 °F - 73.9 °F 90% 29.99 in 3.0 mi North 5.8 mph - 0.00 in Rain Light Rain
8:53 AM 78.1 °F - 73.9 °F 87% 30.01 in 10.0 mi NE 9.2 mph - 0.00 in   Overcast
9:05 AM 78.8 °F - 75.2 °F 89% 30.02 in 10.0 mi NE 9.2 mph - N/A   Overcast
9:25 AM 77.0 °F - 73.4 °F 89% 30.02 in 3.0 mi ENE 11.5 mph 18.4 mph 0.00 in Rain Light Rain
9:53 AM 75.9 °F - 73.9 °F 94% 30.02 in 8.0 mi NE 4.6 mph - 0.10 in Rain Light Rain
10:53 AM 81.0 °F 86.7 °F 75.0 °F 82% 30.01 in 10.0 mi NNE 6.9 mph - 0.00 in   Mostly Cloudy
11:43 AM 82.4 °F 88.2 °F 73.4 °F 74% 30.01 in 10.0 mi ENE 10.4 mph - N/A   Scattered Clouds
11:53 AM 82.9 °F 90.2 °F 75.0 °F 77% 30.00 in 10.0 mi NE 11.5 mph - N/A   Scattered Clouds
12:28 PM 82.4 °F 88.2 °F 73.4 °F 74% 29.99 in 10.0 mi East 10.4 mph - N/A   Mostly Cloudy
12:43 PM 84.2 °F 92.3 °F 75.2 °F 74% 29.99 in 10.0 mi East 10.4 mph - N/A   Scattered Clouds
12:53 PM 84.0 °F 91.2 °F 73.9 °F 72% 29.99 in 10.0 mi East 15.0 mph - N/A   Partly Cloudy
1:53 PM 86.0 °F 93.8 °F 73.9 °F 67% 29.98 in 10.0 mi East 11.5 mph - N/A   Mostly Cloudy
2:46 PM 84.2 °F 90.9 °F 73.4 °F 70% 29.98 in 10.0 mi East 16.1 mph - N/A   Overcast
2:53 PM 82.9 °F 88.8 °F 73.0 °F 72% 29.98 in 10.0 mi ESE 16.1 mph - N/A   Overcast
3:53 PM 82.9 °F 88.8 °F 73.0 °F 72% 29.98 in 10.0 mi ESE 13.8 mph - N/A   Mostly Cloudy
4:53 PM 82.9 °F 88.8 °F 73.0 °F 72% 29.97 in 10.0 mi ESE 13.8 mph - N/A   Mostly Cloudy
5:53 PM 82.9 °F 88.8 °F 73.0 °F 72% 29.95 in 10.0 mi ESE 10.4 mph - N/A   Mostly Cloudy
6:53 PM 82.0 °F 87.4 °F 73.0 °F 74% 29.94 in 10.0 mi East 8.1 mph - N/A   Scattered Clouds
7:53 PM 81.0 °F 86.2 °F 73.9 °F 79% 29.95 in 10.0 mi ESE 5.8 mph - N/A   Scattered Clouds
8:53 PM 80.1 °F 84.2 °F 73.0 °F 79% 29.97 in 10.0 mi East 6.9 mph - N/A   Scattered Clouds
9:45 PM 80.6 °F 85.4 °F 73.4 °F 79% 30.00 in 10.0 mi ENE 4.6 mph - N/A   Mostly Cloudy
9:53 PM 79.0 °F - 73.0 °F 82% 30.00 in 10.0 mi ENE 3.5 mph - N/A   Scattered Clouds
10:53 PM 78.1 °F - 73.9 °F 87% 30.01 in 10.0 mi ENE 3.5 mph - N/A   Clear
11:53 PM 78.1 °F - 73.9 °F 87% 30.01 in 10.0 mi ENE 4.6 mph - N/A   Scattered Clouds